[[{"header":{"parameterUnit":"m.s-1","parameterCategory":1,"la1":30.2992,"la2":30.254,"lo1":-89.0895,"lo2":-89.0443,"dy":0.0025,"dx":0.0025,"nx":19,"ny":19,"refTime":"2026-05-17T03:00:00:Z","depth":0,"parameterNumber":2,"parameterNumberName":"U-component_of_WINDS"},"data":[0,0,0,-5.1371,-5.1374,-5.1519,-5.1519,-5.1711,-5.1713,0,0,0,0,0,0,0,0,0,0,0,-5.1333,-5.1334,-5.137,-5.1374,-5.1519,-5.1519,-5.1711,-5.1713,0,0,0,0,0,0,0,0,0,0,0,-5.1332,-5.1334,-5.1336,-5.1375,-5.1519,-5.1519,-5.1711,-5.1599,0,0,0,0,0,0,0,0,0,0,-5.1457,-5.1427,-5.1333,-5.1336,-5.1376,-5.1519,-5.152,-5.1593,-5.1606,-5.1649,0,-5.169,0,-5.1705,-5.1727,-5.1727,0,0,0,-5.137,-5.1416,-5.1451,-5.1336,-5.1377,-5.1518,-5.1452,-5.16,-5.1614,-5.1666,-5.1692,-5.1699,-5.1708,-5.1728,-5.1729,-5.1994,-5.1996,0,0,-5.1362,-5.1361,-5.1441,-5.1461,-5.144,-5.1448,-5.1457,-5.1608,-5.1637,-5.1693,-5.1704,-5.1711,-5.1729,-5.1731,-5.1993,-5.1995,0,0,0,-5.1342,-5.1355,-5.1386,-5.1453,-5.1479,-5.1452,-5.1463,-5.163,-5.1641,-5.1706,-5.1713,-5.173,-5.1733,-5.1991,-5.1993,-5.2061,0,0,0,-5.1337,-5.1344,-5.1383,-5.1384,-5.1476,-5.1556,-5.1481,-5.163,-5.1647,-5.1712,-5.173,-5.1735,-5.199,-5.1992,-5.2056,-5.2092,0,0,0,-5.1321,-5.1342,-5.1365,-5.1384,-5.1446,-5.1554,-5.1573,-5.1634,-5.1652,-5.1727,-5.1735,-5.1989,-5.1992,-5.2051,-5.2084,-5.2159,0,0,0,-5.1304,-5.1423,-5.1366,-5.1502,-5.1445,-5.1597,-5.1572,-5.1685,-5.1758,-5.1731,-5.199,-5.1993,-5.205,-5.208,-5.2154,-5.222,-5.2248,0,0,-5.1453,-5.1441,-5.1521,-5.1474,-5.1635,-5.1574,-5.1746,-5.1813,-5.1821,-5.1936,-5.1942,-5.2058,-5.2084,-5.2158,-5.2413,-5.2435,0,0,0,-5.1568,-5.1625,-5.1669,-5.1738,-5.1794,-5.1844,-5.1886,-5.1911,-5.2009,-5.188,-5.2107,-5.2123,-5.2167,-5.2197,-5.2216,-5.2253,-5.2009,-5.2008,-5.2008,-5.1774,-5.178,-5.1912,-5.1935,-5.2004,-5.2047,-5.2102,-5.2143,-5.2128,-5.2182,-5.2214,-5.2368,-5.2405,-5.2419,-5.2457,-5.2253,-5.2253,-5.2253,-5.2254,-5.1991,-5.2071,-5.2051,-5.2171,-5.2176,-5.2277,-5.2324,-5.231,-5.2404,-5.2344,-5.2383,-5.2313,-5.2443,-5.2476,-5.2259,-5.2258,-5.2257,-5.2257,-5.2256,-5.2123,-5.2162,-5.2192,-5.2294,-5.2373,-5.2393,-5.2484,-5.2486,-5.2489,-5.2528,-5.256,-5.2559,-5.2555,-5.2544,-5.2545,-5.2545,-5.2546,-5.2546,-5.2546,-5.2246,-5.2278,-5.2355,-5.2426,-5.2471,-5.2531,-5.2578,-5.2622,-5.2671,-5.2665,-5.2665,-5.2643,-5.2457,-5.2408,-5.2555,-5.2553,-5.2552,-5.2551,-5.2551,-5.2455,-5.2408,-5.2527,-5.2573,-5.2656,-5.2732,-5.2736,-5.2827,-5.2864,-5.2909,-5.2881,-5.2744,-5.273,-5.2715,-5.2674,-5.2881,-5.2881,-5.2881,-5.2881,-5.2563,-5.2558,-5.2679,-5.2752,-5.2824,-5.284,-5.2972,-5.3011,-5.3042,-5.3066,-5.3037,-5.2985,-5.297,-5.2965,-5.2944,-5.2906,-5.3167,-5.3167,-5.3168,-5.269,-5.2693,-5.2805,-5.2836,-5.2902,-5.2958,-5.3083,-5.3166,-5.3193,-5.3179,-5.3083,-5.3071,-5.2986,-5.2959,-5.2937,-5.2905,-5.2834,0,0]},{"header":{"parameterUnit":"m.s-1","parameterCategory":1,"la1":30.2992,"la2":30.254,"lo1":-89.0895,"lo2":-89.0443,"dy":0.0025,"dx":0.0025,"nx":19,"ny":19,"refTime":"2026-05-17T03:00:00:Z","depth":0,"parameterNumber":3,"parameterNumberName":"V-component_of_WINDS"},"data":[0,0,0,3.3111,3.3111,3.3119,3.3119,3.3146,3.3146,0,0,0,0,0,0,0,0,0,0,0,3.3117,3.3118,3.3111,3.3111,3.3119,3.3119,3.3145,3.3146,0,0,0,0,0,0,0,0,0,0,0,3.3117,3.3118,3.3118,3.3111,3.3119,3.3119,3.3145,3.3134,0,0,0,0,0,0,0,0,0,0,3.3123,3.3137,3.3117,3.3118,3.3111,3.3119,3.3119,3.3133,3.3134,3.3148,0,3.3163,0,3.3155,3.3149,3.3149,0,0,0,3.3104,3.3136,3.3131,3.3118,3.3112,3.3119,3.3114,3.3134,3.3135,3.3151,3.3163,3.3163,3.3155,3.3149,3.3149,3.3252,3.3253,0,0,3.3104,3.3123,3.3129,3.3132,3.3131,3.3114,3.3114,3.3134,3.3149,3.3163,3.3164,3.3156,3.3149,3.3149,3.3251,3.3252,0,0,0,3.3107,3.3123,3.3117,3.3131,3.3132,3.3114,3.3115,3.3148,3.3145,3.3164,3.3156,3.3149,3.315,3.325,3.3252,3.331,0,0,0,3.3107,3.3125,3.3117,3.3129,3.3132,3.314,3.3128,3.3143,3.3145,3.3156,3.3149,3.315,3.3249,3.3251,3.3307,3.3335,0,0,0,3.3114,3.3126,3.313,3.313,3.3134,3.3139,3.3136,3.3143,3.314,3.3149,3.315,3.3249,3.3251,3.3303,3.3329,3.3368,0,0,0,3.3127,3.3181,3.3131,3.319,3.3134,3.3175,3.3136,3.3166,3.318,3.315,3.325,3.3252,3.3302,3.3326,3.3365,3.3404,3.3423,0,0,3.3206,3.3192,3.3224,3.318,3.3235,3.3173,3.3236,3.3231,3.3214,3.324,3.3243,3.3308,3.3329,3.3367,3.3517,3.3532,0,0,0,3.3256,3.328,3.3291,3.3305,3.3303,3.3303,3.3286,3.3284,3.3306,3.3231,3.3331,3.3343,3.3365,3.3383,3.3396,3.3414,3.3261,3.326,3.326,3.3397,3.3373,3.3426,3.3404,3.3419,3.3401,3.3411,3.3406,3.3376,3.3401,3.3409,3.3503,3.3524,3.3534,3.3553,3.3427,3.3427,3.3428,3.3428,3.3512,3.3543,3.3504,3.3542,3.3516,3.3548,3.3534,3.3512,3.3538,3.3494,3.3512,3.3466,3.355,3.3566,3.3432,3.3431,3.3431,3.343,3.343,3.3602,3.3613,3.361,3.363,3.3648,3.3624,3.3651,3.3627,3.3604,3.3622,3.3628,3.3627,3.3624,3.3627,3.3627,3.3627,3.3627,3.3628,3.3628,3.3696,3.3691,3.3717,3.3721,3.3728,3.3734,3.3719,3.3725,3.3726,3.3706,3.3706,3.3676,3.3563,3.3535,3.3633,3.3632,3.3631,3.3631,3.3631,3.3823,3.3791,3.3831,3.3838,3.3841,3.3862,3.3831,3.3847,3.3848,3.3863,3.3829,3.3749,3.3732,3.3722,3.3699,3.3833,3.3833,3.3833,3.3833,3.3899,3.3888,3.3925,3.3939,3.3949,3.3926,3.3973,3.3962,3.3946,3.3946,3.3923,3.389,3.3881,3.387,3.3856,3.3835,3.4,3.4,3.4,3.3976,3.3966,3.401,3.3994,3.3995,3.3997,3.4041,3.4059,3.4033,3.4007,3.3945,3.3938,3.3886,3.387,3.3841,3.3821,3.3781,0,0]}]]